When you browse on this site, cookies collect data to enhance your experience and personalize the content and advertising you see.
Visit our Privacy Policy to learn more. By continuing to use the site, you agree to this use of cookies and data.
  • In Österreich
  • Länderverzeichnis
  • Für 7 Tage
  • Wassertemperatur
  • Wetterkarte
  • News
  • Widgets
  • user-avatar
    Anmelden

    Stündliche Wetter Mercaderes

    Heute, 22 September, Sonntag

    Zeit Temperatur Niederschläge Wind Luftdruck Luftfeuchtigkeit
    00:00 +21°C° 0.6 mm 1 m/S 666 mmHg 90%
    01:00 +21°C° 0 mm 1 m/S 666 mmHg 90%
    02:00 +19°C° 0.4 mm 0 m/S 666 mmHg 90%
    03:00 +18°C° 0.4 mm 0 m/S 665 mmHg 90%
    04:00 +18°C° 0.4 mm 0 m/S 665 mmHg 90%
    05:00 +19°C° 0 mm 0 m/S 666 mmHg 88%
    06:00 +19°C° 0 mm 0 m/S 666 mmHg 87%
    07:00 +19°C° 0 mm 0 m/S 666 mmHg 85%
    08:00 +23°C° 0.1 mm 1 m/S 667 mmHg 79%
    09:00 +25°C° 0.1 mm 1 m/S 668 mmHg 73%
    10:00 +27°C° 0.1 mm 1 m/S 668 mmHg 67%
    11:00 +28°C° 0.3 mm 1 m/S 668 mmHg 63%
    12:00 +29°C° 0.3 mm 2 m/S 667 mmHg 59%
    13:00 +30°C° 0.3 mm 2 m/S 667 mmHg 55%
    14:00 +29°C° 0.9 mm 2 m/S 666 mmHg 59%
    15:00 +28°C° 0.9 mm 2 m/S 666 mmHg 63%
    16:00 +27°C° 0.9 mm 2 m/S 665 mmHg 67%
    17:00 +26°C° 0.9 mm 2 m/S 665 mmHg 74%
    18:00 +24°C° 0.9 mm 2 m/S 666 mmHg 81%
    19:00 +22°C° 0.9 mm 1 m/S 666 mmHg 88%
    20:00 +22°C° 0.2 mm 1 m/S 666 mmHg 88%
    21:00 +21°C° 0.2 mm 1 m/S 666 mmHg 88%
    22:00 +21°C° 0.2 mm 1 m/S 666 mmHg 88%
    23:00 +21°C° 0.2 mm 1 m/S 666 mmHg 88%

    Morgen, 23 September, Montag

    Zeit Temperatur Niederschläge Wind Luftdruck Luftfeuchtigkeit
    00:00 +21°C° 0.2 mm 1 m/S 666 mmHg 88%
    01:00 +19°C° 0.2 mm 0 m/S 666 mmHg 88%
    02:00 +20°C° 0 mm 1 m/S 666 mmHg 87%
    03:00 +20°C° 0 mm 1 m/S 666 mmHg 87%
    04:00 +20°C° 0 mm 1 m/S 666 mmHg 87%
    05:00 +20°C° 0 mm 1 m/S 666 mmHg 85%
    06:00 +19°C° 0 mm 0 m/S 666 mmHg 84%
    07:00 +19°C° 0 mm 0 m/S 667 mmHg 82%
    08:00 +23°C° 0 mm 1 m/S 667 mmHg 75%
    09:00 +25°C° 0 mm 1 m/S 668 mmHg 69%
    10:00 +27°C° 0 mm 1 m/S 668 mmHg 62%
    11:00 +28°C° 0.1 mm 1 m/S 668 mmHg 58%
    12:00 +29°C° 0.1 mm 2 m/S 668 mmHg 53%
    13:00 +31°C° 0.1 mm 2 m/S 667 mmHg 48%
    14:00 +29°C° 0.4 mm 2 m/S 667 mmHg 54%
    15:00 +28°C° 0.4 mm 2 m/S 666 mmHg 60%
    16:00 +27°C° 0.4 mm 3 m/S 665 mmHg 66%
    17:00 +26°C° 0.7 mm 2 m/S 665 mmHg 73%
    18:00 +24°C° 0.7 mm 2 m/S 665 mmHg 80%
    19:00 +22°C° 0.7 mm 1 m/S 665 mmHg 87%
    20:00 +22°C° 0.1 mm 1 m/S 666 mmHg 87%
    21:00 +21°C° 0.1 mm 1 m/S 666 mmHg 87%
    22:00 +21°C° 0.1 mm 1 m/S 667 mmHg 86%
    23:00 +21°C° 0 mm 1 m/S 666 mmHg 86%

    übermorgen, 24 September, Dienstag

    Zeit Temperatur Niederschläge Wind Luftdruck Luftfeuchtigkeit
    00:00 +21°C° 0 mm 1 m/S 666 mmHg 87%
    01:00 +18°C° 0 mm 0 m/S 666 mmHg 87%
    02:00 +18°C° 0 mm 0 m/S 666 mmHg 87%
    03:00 +18°C° 0 mm 0 m/S 666 mmHg 88%
    04:00 +18°C° 0 mm 0 m/S 665 mmHg 88%
    05:00 +19°C° 0.2 mm 0 m/S 666 mmHg 88%
    06:00 +19°C° 0.2 mm 0 m/S 666 mmHg 88%
    07:00 +19°C° 0.2 mm 0 m/S 667 mmHg 88%
    08:00 +21°C° 0.1 mm 0 m/S 667 mmHg 81%
    09:00 +22°C° 0.1 mm 0 m/S 668 mmHg 74%
    10:00 +26°C° 0.1 mm 1 m/S 668 mmHg 67%
    11:00 +27°C° 0.1 mm 1 m/S 668 mmHg 62%
    12:00 +29°C° 0.1 mm 1 m/S 667 mmHg 57%
    13:00 +30°C° 0.1 mm 1 m/S 667 mmHg 52%
    14:00 +29°C° 0.6 mm 1 m/S 666 mmHg 57%
    15:00 +28°C° 0.6 mm 2 m/S 666 mmHg 61%
    16:00 +28°C° 0.6 mm 2 m/S 665 mmHg 65%
    17:00 +26°C° 1.4 mm 2 m/S 665 mmHg 73%
    18:00 +24°C° 1.4 mm 2 m/S 665 mmHg 80%
    19:00 +23°C° 1.4 mm 1 m/S 665 mmHg 88%
    20:00 +22°C° 0.6 mm 1 m/S 666 mmHg 88%
    21:00 +22°C° 0.6 mm 1 m/S 666 mmHg 88%
    22:00 +22°C° 0.6 mm 1 m/S 667 mmHg 88%
    23:00 +21°C° 0.9 mm 1 m/S 666 mmHg 89%

    25 September, Mittwoch

    Zeit Temperatur Niederschläge Wind Luftdruck Luftfeuchtigkeit
    00:00 +21°C° 0.9 mm 1 m/S 666 mmHg 89%
    01:00 +21°C° 0.9 mm 1 m/S 666 mmHg 89%
    02:00 +21°C° 0.8 mm 1 m/S 666 mmHg 90%
    03:00 +19°C° 0.8 mm 0 m/S 666 mmHg 90%
    04:00 +19°C° 0.8 mm 0 m/S 665 mmHg 90%
    05:00 +19°C° 0.2 mm 0 m/S 666 mmHg 91%
    06:00 +19°C° 0.2 mm 0 m/S 666 mmHg 91%
    07:00 +19°C° 0.2 mm 0 m/S 667 mmHg 91%
    08:00 +20°C° 0.1 mm 0 m/S 667 mmHg 88%
    09:00 +21°C° 0.1 mm 0 m/S 668 mmHg 86%
    10:00 +24°C° 0.1 mm 1 m/S 668 mmHg 83%
    11:00 +24°C° 0.5 mm 1 m/S 667 mmHg 82%
    12:00 +24°C° 0.5 mm 1 m/S 667 mmHg 81%
    13:00 +24°C° 0.5 mm 1 m/S 666 mmHg 80%
    14:00 +24°C° 0.7 mm 1 m/S 666 mmHg 80%
    15:00 +24°C° 0.7 mm 1 m/S 665 mmHg 79%
    16:00 +25°C° 0.7 mm 1 m/S 665 mmHg 78%
    17:00 +24°C° 0.5 mm 1 m/S 665 mmHg 82%
    18:00 +23°C° 0.5 mm 1 m/S 665 mmHg 85%
    19:00 +20°C° 0.5 mm 0 m/S 666 mmHg 89%
    20:00 +20°C° 0.1 mm 0 m/S 666 mmHg 89%
    21:00 +19°C° 0.1 mm 0 m/S 666 mmHg 89%
    22:00 +21°C° 0.1 mm 1 m/S 667 mmHg 89%
    23:00 +19°C° 0 mm 0 m/S 666 mmHg 90%

    26 September, Donnerstag

    Zeit Temperatur Niederschläge Wind Luftdruck Luftfeuchtigkeit
    00:00 +19°C° 0 mm 0 m/S 666 mmHg 90%
    01:00 +18°C° 0 mm 0 m/S 665 mmHg 90%
    02:00 +18°C° 0.3 mm 0 m/S 665 mmHg 91%
    03:00 +19°C° 0.3 mm 0 m/S 665 mmHg 91%
    04:00 +19°C° 0.3 mm 0 m/S 665 mmHg 92%
    05:00 +19°C° 0.3 mm 0 m/S 666 mmHg 92%
    06:00 +19°C° 0.3 mm 0 m/S 666 mmHg 92%
    07:00 +19°C° 0.3 mm 0 m/S 667 mmHg 92%
    08:00 +23°C° 0 mm 1 m/S 667 mmHg 84%
    09:00 +25°C° 0 mm 1 m/S 667 mmHg 75%
    10:00 +27°C° 0 mm 1 m/S 668 mmHg 67%
    11:00 +28°C° 0.2 mm 1 m/S 667 mmHg 62%
    12:00 +29°C° 0.2 mm 1 m/S 667 mmHg 58%
    13:00 +30°C° 0.2 mm 1 m/S 666 mmHg 54%
    14:00 +29°C° 0.4 mm 2 m/S 666 mmHg 58%
    15:00 +28°C° 0.4 mm 2 m/S 665 mmHg 63%
    16:00 +27°C° 0.4 mm 2 m/S 665 mmHg 67%
    17:00 +25°C° 0.3 mm 2 m/S 665 mmHg 73%
    18:00 +24°C° 0.3 mm 2 m/S 665 mmHg 79%
    19:00 +22°C° 0.3 mm 1 m/S 665 mmHg 85%
    20:00 +22°C° 0 mm 1 m/S 665 mmHg 85%
    21:00 +21°C° 0 mm 1 m/S 665 mmHg 85%
    22:00 +21°C° 0 mm 1 m/S 666 mmHg 85%
    23:00 +21°C° 0 mm 1 m/S 666 mmHg 84%

    27 September, Freitag

    Zeit Temperatur Niederschläge Wind Luftdruck Luftfeuchtigkeit
    00:00 +20°C° 0 mm 1 m/S 665 mmHg 83%
    01:00 +20°C° 0 mm 1 m/S 665 mmHg 82%
    02:00 +20°C° 0 mm 1 m/S 665 mmHg 81%
    03:00 +20°C° 0 mm 1 m/S 665 mmHg 81%
    04:00 +20°C° 0 mm 1 m/S 665 mmHg 80%
    05:00 +20°C° 0 mm 1 m/S 665 mmHg 78%
    06:00 +21°C° 0 mm 1 m/S 666 mmHg 77%
    07:00 +21°C° 0 mm 1 m/S 666 mmHg 75%
    08:00 +23°C° 0 mm 1 m/S 667 mmHg 69%
    09:00 +25°C° 0 mm 1 m/S 668 mmHg 63%
    10:00 +27°C° 0 mm 1 m/S 668 mmHg 57%
    11:00 +28°C° 0 mm 1 m/S 668 mmHg 53%
    12:00 +29°C° 0 mm 2 m/S 667 mmHg 50%
    13:00 +30°C° 0 mm 2 m/S 666 mmHg 46%
    14:00 +29°C° 0.1 mm 2 m/S 666 mmHg 53%
    15:00 +28°C° 0.1 mm 2 m/S 665 mmHg 60%
    16:00 +27°C° 0.1 mm 3 m/S 665 mmHg 67%
    17:00 +25°C° 1 mm 2 m/S 665 mmHg 74%
    18:00 +24°C° 1 mm 2 m/S 665 mmHg 81%
    19:00 +22°C° 1 mm 1 m/S 665 mmHg 88%
    20:00 +22°C° 0.4 mm 1 m/S 665 mmHg 88%
    21:00 +21°C° 0.4 mm 1 m/S 666 mmHg 89%
    22:00 +21°C° 0.4 mm 1 m/S 666 mmHg 89%
    23:00 +21°C° 0.3 mm 1 m/S 666 mmHg 89%
    Mehr zeigen